GW5124 Weather Reports


time (UTC)temp
C
wind
direction
speed
KPH
gust
KPH
rain 1hr
cm
rain 24hr
cm
rain mn
cm
humidity
%
barometer
mb
20260508092940 0 352 0.0 0.0 0.00 0.00 0.00 96 1015.2
20260508092437 0 352 0.0 0.0 0.00 0.00 0.00 96 1015.2
20260508091936 0 351 0.0 0.0 0.00 0.00 0.00 96 1015.4
20260508091432 0 17 0.0 0.0 0.00 0.00 0.00 96 1015.0
20260508090929 0 69 0.0 0.0 0.00 0.00 0.00 95 1015.3
20260508090428 0 69 0.0 0.0 0.00 0.00 0.00 95 1015.2
20260508085923 0 69 0.0 0.0 0.00 0.00 0.00 95 1015.1
20260508085420 0 69 0.0 0.0 0.00 0.00 0.00 95 1015.2
20260508084917 0 69 0.0 0.0 0.00 0.00 0.00 95 1015.1
20260508084413 0 69 0.0 0.0 0.00 0.00 0.00 95 1015.2
20260508083912 0 69 0.0 0.0 0.00 0.00 0.00 95 1015.2
20260508083409 0 69 0.0 0.0 0.00 0.00 0.00 95 1015.2
20260508082908 0 69 0.0 0.0 0.00 0.00 0.00 95 1015.2
20260508082406 0 69 0.0 0.0 0.00 0.00 0.00 94 1015.2
20260508081904 0 69 0.0 0.0 0.00 0.00 0.00 94 1015.2
20260508081400 0 69 0.0 0.0 0.00 0.00 0.00 94 1015.0
20260508080857 0 69 0.0 0.0 0.00 0.00 0.00 94 1014.9
20260508080355 0 69 0.0 0.0 0.00 0.00 0.00 94 1014.9
20260508075851 0 69 0.0 0.0 0.00 0.00 0.00 93 1015.0
20260508075348 0 69 0.0 0.0 0.00 0.00 0.00 93 1014.9
20260508074846 0 69 0.0 0.0 0.00 0.00 0.00 93 1014.7
20260508074343 0 69 0.0 0.0 0.00 0.00 0.00 92 1014.8
20260508073840 0 69 0.0 0.0 0.00 0.00 0.00 92 1014.5
20260508073338 0 69 0.0 0.0 0.00 0.00 0.00 92 1014.7
20260508072834 0 69 0.0 0.0 0.00 0.00 0.00 91 1014.7
20260508072331 0 69 0.0 0.0 0.00 0.00 0.00 91 1014.9
20260508071828 0 69 0.0 0.0 0.00 0.00 0.00 91 1014.9
20260508071326 0 69 0.0 0.0 0.00 0.00 0.00 91 1014.7
20260508070824 0 69 0.0 0.0 0.00 0.00 0.00 91 1014.7
20260508070322 0 69 0.0 0.0 0.00 0.00 0.00 91 1015.0
20260508065819 0 69 0.0 0.0 0.00 0.00 0.00 91 1015.0
20260508065317 0 69 0.0 0.0 0.00 0.00 0.00 91 1014.9
20260508064814 0 69 0.0 0.0 0.00 0.00 0.00 91 1014.8
20260508064312 0 69 0.0 0.0 0.00 0.00 0.00 91 1014.9
20260508063809 0 69 0.0 0.0 0.00 0.00 0.00 91 1015.1
20260508063307 0 69 0.0 0.0 0.00 0.00 0.00 91 1014.9
20260508062804 1 71 0.0 0.0 0.00 0.00 0.00 91 1015.1
20260508062305 1 69 0.0 0.0 0.00 0.00 0.00 90 1015.0
20260508061758 1 69 0.0 0.0 0.00 0.00 0.00 90 1014.9
20260508061255 1 68 0.0 0.0 0.00 0.00 0.00 89 1015.1
20260508060752 1 65 0.0 0.0 0.00 0.00 0.00 88 1015.1
20260508060250 1 65 0.0 0.0 0.00 0.00 0.00 88 1014.9
20260508055745 1 65 0.0 0.0 0.00 0.00 0.00 88 1014.9
20260508055242 1 65 0.0 0.0 0.00 0.00 0.00 88 1014.9
20260508054739 1 65 0.0 0.0 0.00 0.00 0.00 87 1015.0
20260508054237 1 65 0.0 0.0 0.00 0.00 0.00 86 1014.8
20260508053734 2 72 0.0 0.0 0.00 0.00 0.00 85 1015.0
20260508053231 2 72 0.0 0.0 0.00 0.00 0.00 85 1015.0
20260508052728 2 72 0.0 0.0 0.00 0.00 0.00 85 1014.9
20260508052225 2 73 0.0 0.0 0.00 0.00 0.00 86 1015.0
20260508051721 2 73 0.0 0.0 0.00 0.00 0.00 86 1015.1
20260508051216 2 73 0.0 0.0 0.00 0.00 0.00 85 1015.1
20260508050713 2 73 0.0 0.0 0.00 0.00 0.00 83 1015.1
20260508050211 2 76 0.0 0.0 0.00 0.00 0.00 84 1015.0
20260508045706 2 80 0.0 0.0 0.00 0.00 0.00 83 1015.0
20260508045204 2 80 0.0 0.0 0.00 0.00 0.00 83 1015.0
20260508044701 3 80 0.0 0.0 0.00 0.00 0.00 82 1015.2
20260508044158 3 80 0.0 0.0 0.00 0.00 0.00 82 1015.1
20260508043654 3 80 0.0 0.0 0.00 0.00 0.00 80 1015.1
20260508043152 3 118 0.0 0.0 0.00 0.00 0.00 80 1014.9
20260508042648 3 136 0.0 0.0 0.00 0.00 0.00 80 1015.1
20260508042146 3 138 0.0 0.0 0.00 0.00 0.00 79 1014.9
20260508041642 3 138 0.0 0.0 0.00 0.00 0.00 78 1015.0
20260508041139 4 138 0.0 0.0 0.00 0.00 0.00 77 1015.0
20260508040635 4 224 0.0 0.0 0.00 0.00 0.00 76 1014.9
20260508040133 5 224 0.0 0.0 0.00 0.00 0.00 75 1014.8
20260508035630 5 145 1.6 1.6 0.00 0.15 0.15 75 1014.7
20260508035127 5 239 0.0 0.0 0.00 0.15 0.15 75 1014.7
20260508034624 5 286 3.2 3.2 0.00 0.15 0.15 73 1014.5
20260508034121 5 124 0.0 0.0 0.00 0.15 0.15 77 1014.6
20260508033618 5 106 0.0 0.0 0.00 0.15 0.15 74 1014.3
20260508033116 5 107 0.0 0.0 0.00 0.15 0.15 77 1014.5
20260508032612 5 220 0.0 0.0 0.00 0.15 0.15 77 1014.6
20260508032110 5 156 0.0 0.0 0.00 0.15 0.15 79 1014.2
20260508031607 4 73 0.0 0.0 0.00 0.15 0.15 78 1014.6
20260508031103 4 308 0.0 0.0 0.00 0.15 0.15 79 1014.2
20260508030559 4 278 0.0 0.0 0.00 0.15 0.15 80 1014.5
20260508030058 5 250 0.0 0.0 0.00 0.15 0.15 79 1014.1
20260508025553 4 110 0.0 0.0 0.00 0.15 0.15 80 1014.2
20260508025051 4 112 0.0 0.0 0.00 0.15 0.15 80 1014.3
20260508024546 4 94 0.0 0.0 0.00 0.15 0.15 79 1014.3
20260508024044 5 94 0.0 0.0 0.00 0.15 0.15 78 1014.1
20260508023540 5 95 0.0 0.0 0.00 0.15 0.15 77 1013.9
20260508023038 5 95 0.0 0.0 0.00 0.15 0.15 75 1013.9
20260508022533 5 116 0.0 0.0 0.00 0.15 0.15 76 1014.0
20260508022031 6 113 0.0 0.0 0.00 0.15 0.15 74 1014.0
20260508021526 6 85 0.0 0.0 0.00 0.15 0.15 73 1013.6
20260508021022 6 110 0.0 0.0 0.00 0.15 0.15 74 1013.9
20260508020520 6 137 0.0 0.0 0.00 0.15 0.15 71 1013.7
20260508020018 6 89 0.0 0.0 0.00 0.15 0.15 74 1013.8
20260508015515 6 103 0.0 0.0 0.00 0.15 0.15 74 1013.7
20260508015012 6 100 0.0 0.0 0.00 0.15 0.15 74 1013.8
20260508014508 6 127 0.0 1.6 0.00 0.15 0.15 72 1013.8
20260508014005 6 151 0.0 0.0 0.00 0.15 0.15 69 1013.8
20260508013501 6 123 0.0 0.0 0.00 0.15 0.15 70 1013.5
20260508012958 7 190 0.0 1.6 0.00 0.15 0.15 70 1013.6
20260508012455 6 77 0.0 0.0 0.00 0.15 0.15 72 1013.4
20260508011952 6 71 0.0 0.0 0.00 0.15 0.15 72 1013.4
20260508011450 6 64 0.0 0.0 0.00 0.15 0.15 69 1013.3
20260508010947 6 321 0.0 0.0 0.00 0.15 0.15 70 1013.2
20260508010444 7 321 0.0 0.0 0.00 0.15 0.15 69 1013.2
20260508005942 7 322 0.0 1.6 0.00 0.15 0.15 66 1013.2
20260508005438 7 159 0.0 0.0 0.00 0.15 0.15 70 1013.5
20260508004935 7 147 0.0 1.6 0.00 0.15 0.15 71 1013.0
20260508004431 7 93 0.0 1.6 0.00 0.15 0.15 69 1013.2
20260508003928 7 130 0.0 0.0 0.00 0.15 0.15 70 1013.2
20260508003425 8 116 0.0 0.0 0.00 0.15 0.15 68 1012.9
20260508002922 8 165 0.0 1.6 0.00 0.15 0.15 64 1013.0
20260508002418 8 195 0.0 1.6 0.00 0.15 0.15 68 1012.7
20260508001914 8 163 1.6 3.2 0.00 0.15 0.15 63 1013.0
20260508001411 9 196 0.0 0.0 0.00 0.15 0.15 63 1012.9
20260508000907 9 173 1.6 1.6 0.00 0.15 0.15 65 1012.6
20260508000405 10 259 0.0 1.6 0.00 0.15 0.15 60 1012.6
20260507235900 10 253 3.2 3.2 0.00 0.15 0.15 58 1012.7
20260507235358 10 168 1.6 3.2 0.00 0.15 0.15 59 1012.6
20260507234854 10 176 0.0 0.0 0.00 0.15 0.15 58 1012.3
20260507234351 10 221 8.0 11.3 0.00 0.15 0.15 55 1012.6
20260507233848 10 196 0.0 1.6 0.00 0.15 0.15 56 1012.4
20260507233345 11 187 3.2 4.8 0.00 0.15 0.15 55 1012.5
20260507232843 11 275 3.2 4.8 0.00 0.15 0.15 56 1012.5
20260507232339 11 198 3.2 9.7 0.00 0.15 0.15 58 1012.5
20260507231837 11 187 3.2 6.4 0.00 0.15 0.15 56 1012.2
20260507231333 11 254 3.2 4.8 0.00 0.15 0.15 56 1012.1
20260507230829 11 176 4.8 6.4 0.00 0.15 0.15 55 1012.2
20260507230327 11 323 0.0 1.6 0.00 0.15 0.15 56 1012.2
20260507225827 11 152 6.4 9.7 0.00 0.15 0.15 57 1012.2
20260507225323 11 240 1.6 4.8 0.00 0.15 0.15 56 1012.3
20260507224819 11 185 4.8 9.7 0.00 0.15 0.15 53 1012.2
20260507224316 11 221 3.2 11.3 0.00 0.15 0.15 53 1012.2
20260507223812 11 190 6.4 11.3 0.00 0.15 0.15 54 1012.1
20260507223308 11 152 9.7 20.9 0.00 0.15 0.15 53 1012.2
20260507222806 12 185 4.8 6.4 0.00 0.15 0.15 52 1012.0
20260507222305 12 223 1.6 12.9 0.00 0.15 0.15 52 1012.1
20260507221759 12 204 8.0 12.9 0.00 0.15 0.15 51 1012.1
20260507221255 11 184 3.2 6.4 0.00 0.15 0.15 52 1011.9
20260507220752 11 216 6.4 12.9 0.00 0.15 0.15 54 1012.0
20260507220250 12 92 9.7 14.5 0.00 0.15 0.15 52 1011.9
20260507215746 12 262 3.2 4.8 0.00 0.15 0.15 57 1011.6
20260507215244 11 249 3.2 11.3 0.00 0.15 0.15 54 1011.6
20260507214741 12 188 3.2 12.9 0.00 0.15 0.15 54 1011.5
20260507214238 11 262 0.0 1.6 0.00 0.15 0.15 56 1011.4
20260507213733 12 139 3.2 4.8 0.00 0.15 0.15 55 1011.4
20260507213230 12 234 3.2 9.7 0.00 0.15 0.15 55 1011.4
20260507212726 13 168 9.7 12.9 0.00 0.15 0.15 51 1011.2
20260507212223 12 189 6.4 9.7 0.00 0.15 0.15 51 1011.3
20260507211720 12 230 3.2 4.8 0.00 0.15 0.15 56 1011.4
20260507211216 12 287 1.6 6.4 0.00 0.15 0.15 55 1011.3
20260507210713 11 126 4.8 9.7 0.00 0.15 0.15 59 1011.1
20260507210210 11 173 6.4 9.7 0.00 0.15 0.15 58 1011.3
20260507205706 11 141 6.4 11.3 0.00 0.15 0.15 59 1011.2
20260507205203 11 160 0.0 4.8 0.00 0.15 0.15 58 1011.2
20260507204659 12 190 3.2 14.5 0.00 0.15 0.15 55 1011.3
20260507204157 12 274 0.0 11.3 0.00 0.15 0.15 57 1011.1
20260507203655 11 173 4.8 6.4 0.00 0.15 0.15 58 1011.3
20260507203152 11 111 6.4 11.3 0.00 0.15 0.15 60 1011.2
20260507202647 11 173 0.0 4.8 0.00 0.15 0.15 61 1011.2
20260507202144 12 281 3.2 3.2 0.00 0.15 0.15 58 1011.3
20260507201639 12 174 4.8 6.4 0.00 0.15 0.15 58 1011.5
20260507201136 11 160 8.0 12.9 0.00 0.15 0.15 60 1011.3
20260507200632 12 219 1.6 3.2 0.00 0.15 0.15 62 1011.2
20260507200128 11 168 1.6 6.4 0.00 0.15 0.15 61 1011.2
20260507195625 11 205 4.8 9.7 0.00 0.15 0.15 61 1011.5
20260507195123 12 255 0.0 9.7 0.00 0.15 0.15 59 1011.4
20260507194619 12 143 3.2 6.4 0.00 0.15 0.15 58 1011.7
20260507194115 13 150 3.2 6.4 0.00 0.15 0.15 58 1011.5
20260507193612 12 193 4.8 9.7 0.00 0.15 0.15 60 1011.4
20260507193109 12 221 3.2 4.8 0.00 0.15 0.15 61 1011.5
20260507192605 12 140 3.2 16.1 0.00 0.15 0.15 57 1011.6
20260507192102 13 280 3.2 6.4 0.00 0.15 0.15 55 1011.5
20260507191557 13 288 12.9 16.1 0.00 0.15 0.15 52 1011.7
20260507191055 13 284 4.8 9.7 0.00 0.15 0.15 57 1011.6
20260507190552 13 262 3.2 4.8 0.00 0.15 0.15 55 1011.6
20260507190051 13 153 4.8 9.7 0.00 0.15 0.15 56 1011.7
20260507185549 12 187 4.8 4.8 0.00 0.15 0.15 60 1012.0
20260507185045 12 123 6.4 12.9 0.00 0.15 0.15 58 1011.7
20260507184543 11 169 1.6 3.2 0.00 0.15 0.15 60 1011.7
20260507184041 11 199 6.4 9.7 0.00 0.15 0.15 61 1012.1
20260507183536 11 241 3.2 6.4 0.00 0.15 0.15 62 1012.0
20260507183034 12 193 4.8 12.9 0.00 0.15 0.15 60 1012.2
20260507182530 11 166 4.8 4.8 0.00 0.15 0.15 61 1011.9
20260507182026 11 189 3.2 6.4 0.00 0.15 0.15 62 1012.2
20260507181523 11 183 6.4 12.9 0.00 0.15 0.15 60 1011.9
20260507181019 12 151 6.4 12.9 0.00 0.15 0.15 58 1012.0
20260507180516 12 213 3.2 6.4 0.00 0.15 0.15 56 1012.0
20260507180013 12 176 6.4 11.3 0.00 0.15 0.15 59 1012.0
20260507175509 11 192 6.4 9.7 0.00 0.15 0.15 62 1012.1
20260507175007 10 200 4.8 14.5 0.00 0.15 0.15 64 1011.9
20260507174504 11 291 3.2 4.8 0.00 0.15 0.15 65 1012.1
20260507174001 10 144 3.2 9.7 0.00 0.15 0.15 63 1012.1
20260507173458 10 174 3.2 4.8 0.00 0.15 0.15 64 1012.3
20260507172955 10 318 4.8 9.7 0.00 0.15 0.15 63 1012.2
20260507172451 10 190 0.0 6.4 0.00 0.15 0.15 64 1012.2
20260507171948 11 159 9.7 16.1 0.00 0.15 0.15 62 1012.5
20260507171443 10 180 3.2 6.4 0.00 0.15 0.15 62 1012.2
20260507170941 10 155 9.7 12.9 0.00 0.15 0.15 62 1012.5
20260507170437 10 123 1.6 9.7 0.00 0.15 0.15 61 1012.5
20260507165934 11 252 1.6 4.8 0.00 0.15 0.15 65 1012.4
20260507165430 11 274 1.6 9.7 0.00 0.15 0.15 63 1012.5
20260507164926 12 186 4.8 11.3 0.00 0.15 0.15 62 1012.5
20260507164423 12 179 6.4 11.3 0.00 0.15 0.15 61 1012.3
20260507163920 12 187 3.2 11.3 0.00 0.15 0.15 60 1012.5
20260507163418 11 201 3.2 6.4 0.00 0.15 0.15 62 1012.4
20260507162914 11 293 8.0 11.3 0.00 0.15 0.15 62 1012.4
20260507162409 10 170 1.6 4.8 0.00 0.15 0.15 66 1012.5
20260507161907 11 241 0.0 4.8 0.00 0.15 0.15 67 1012.6
20260507161403 10 78 0.0 3.2 0.00 0.15 0.15 66 1012.6
20260507160900 10 260 3.2 9.7 0.00 0.15 0.15 69 1012.8
20260507160355 10 48 1.6 3.2 0.00 0.15 0.15 72 1012.8
20260507155852 10 264 8.0 11.3 0.00 0.15 0.15 68 1012.8
20260507155348 10 138 3.2 6.4 0.00 0.15 0.15 68 1012.5
20260507154845 10 180 3.2 4.8 0.00 0.15 0.15 71 1012.7
20260507154342 10 24 1.6 4.8 0.00 0.15 0.15 73 1012.8
20260507153839 9 171 6.4 6.4 0.00 0.15 0.15 69 1012.8
20260507153335 9 78 1.6 3.2 0.00 0.15 0.15 70 1012.8
20260507152832 9 138 1.6 4.8 0.00 0.15 0.15 69 1012.7
20260507152328 9 222 0.0 4.8 0.00 0.15 0.15 76 1012.8
20260507151825 9 310 0.0 3.2 0.00 0.15 0.15 75 1013.0
20260507151321 9 145 3.2 4.8 0.00 0.15 0.15 73 1012.8
20260507150818 10 162 4.8 6.4 0.00 0.15 0.15 74 1012.8
20260507150314 9 203 1.6 1.6 0.00 0.15 0.15 75 1012.9
20260507145811 8 318 3.2 6.4 0.00 0.15 0.15 81 1013.0
20260507145307 8 38 1.6 3.2 0.00 0.15 0.15 78 1013.0
20260507144804 8 326 0.0 3.2 0.00 0.15 0.15 80 1013.0
20260507144302 8 308 1.6 4.8 0.00 0.15 0.15 79 1012.7
20260507143758 9 289 1.6 6.4 0.00 0.15 0.15 75 1013.2
20260507143255 8 313 0.0 1.6 0.00 0.15 0.15 77 1013.2
20260507142751 8 19 1.6 1.6 0.00 0.15 0.15 82 1013.0
20260507142248 8 127 1.6 4.8 0.00 0.15 0.15 76 1013.3
20260507141744 8 328 1.6 3.2 0.00 0.15 0.15 82 1013.3
20260507141242 8 8 0.0 3.2 0.00 0.15 0.15 84 1013.3
20260507140737 8 353 0.0 3.2 0.00 0.15 0.15 84 1013.4
20260507140235 8 27 1.6 3.2 0.00 0.15 0.15 85 1013.5
20260507135732 8 5 0.0 1.6 0.00 0.15 0.15 87 1013.7
20260507135230 7 339 1.6 4.8 0.00 0.15 0.15 89 1013.8
20260507134725 7 75 3.2 3.2 0.00 0.15 0.15 88 1013.7
20260507134222 7 294 1.6 4.8 0.00 0.15 0.15 90 1013.5
20260507133718 7 178 1.6 3.2 0.00 0.15 0.15 92 1013.7
20260507133215 7 257 0.0 1.6 0.00 0.15 0.15 93 1013.7
20260507132713 7 320 0.0 1.6 0.00 0.15 0.15 94 1013.6
20260507132209 7 359 1.6 3.2 0.00 0.15 0.15 95 1013.5
20260507131706 7 290 0.0 1.6 0.00 0.15 0.15 97 1013.7
20260507131203 6 303 0.0 4.8 0.00 0.15 0.15 97 1013.5
20260507130700 6 16 0.0 0.0 0.00 0.15 0.15 98 1013.6
20260507130157 6 324 0.0 0.0 0.00 0.15 0.15 98 1013.6
20260507125656 6 130 0.0 0.0 0.00 0.15 0.15 98 1013.8
20260507125153 6 290 0.0 4.8 0.00 0.15 0.15 99 1013.6
20260507124649 6 359 0.0 3.2 0.00 0.15 0.15 99 1013.7
20260507124147 6 5 1.6 3.2 0.00 0.15 0.15 99 1013.8
20260507123645 6 333 0.0 0.0 0.00 0.15 0.15 99 1013.7
20260507123142 6 14 0.0 1.6 0.00 0.15 0.15 99 1013.6
20260507122637 6 292 0.0 3.2 0.00 0.15 0.15 99 1013.4
20260507122133 6 48 0.0 1.6 0.00 0.15 0.15 99 1013.5
20260507121629 6 300 0.0 4.8 0.00 0.15 0.15 99 1013.5
20260507121125 6 64 0.0 0.0 0.00 0.15 0.15 99 1013.6
20260507120622 6 295 0.0 0.0 0.00 0.15 0.15 99 1013.6
20260507120118 6 271 0.0 0.0 0.00 0.15 0.15 99 1013.5
20260507115615 6 265 0.0 1.6 0.00 0.15 0.15 99 1013.5
20260507115111 6 88 0.0 1.6 0.00 0.15 0.15 99 1013.6
20260507114607 6 134 0.0 0.0 0.00 0.15 0.15 99 1013.4
20260507114104 6 140 0.0 0.0 0.00 0.15 0.15 99 1013.5
20260507113601 6 141 0.0 0.0 0.00 0.15 0.15 99 1013.5
20260507113058 6 141 0.0 0.0 0.00 0.15 0.15 99 1013.3
20260507112556 6 141 0.0 0.0 0.00 0.15 0.15 99 1013.0
20260507112053 6 316 0.0 0.0 0.00 0.15 0.15 99 1013.3
20260507111549 6 315 0.0 0.0 0.00 0.15 0.15 99 1013.2
20260507111046 6 319 0.0 0.0 0.00 0.15 0.15 99 1013.2
20260507110543 6 350 0.0 0.0 0.00 0.15 0.15 99 1012.9
20260507110039 6 352 0.0 0.0 0.00 0.15 0.15 99 1012.9
20260507105536 6 352 0.0 0.0 0.00 0.15 0.15 99 1012.8
20260507105032 6 352 0.0 0.0 0.00 0.15 0.15 99 1012.7
20260507104530 6 352 0.0 0.0 0.00 0.15 0.15 99 1012.7
20260507104026 6 338 0.0 1.6 0.00 0.15 0.15 99 1012.5
20260507103522 6 324 0.0 1.6 0.00 0.15 0.15 99 1012.8
20260507103019 6 300 1.6 3.2 0.00 0.15 0.15 99 1012.6
20260507102516 6 356 0.0 0.0 0.00 0.15 0.15 99 1012.7
20260507102012 6 89 0.0 0.0 0.00 0.15 0.15 99 1012.7
20260507101507 6 356 0.0 0.0 0.00 0.15 0.15 99 1012.4
20260507101004 6 39 0.0 0.0 0.00 0.15 0.15 99 1012.5
20260507100501 6 56 0.0 0.0 0.00 0.15 0.15 99 1012.7
20260507095959 6 331 0.0 0.0 0.00 0.15 0.15 99 1012.5
20260507095457 6 39 0.0 0.0 0.00 0.15 0.15 99 1012.8
20260507094953 6 301 0.0 0.0 0.00 0.15 0.15 99 1012.7
20260507094449 6 311 0.0 1.6 0.00 0.15 0.15 99 1012.9
20260507093947 6 358 0.0 1.6 0.00 0.15 0.15 99 1013.0
20260507093444 6 333 0.0 1.6 0.00 0.15 0.15 99 1012.6